Deerhorn Valley (67) Station Data

Red Flag Warning: No
Fire Weather Zone: 250
SDGE Region: Mountain Empire
Lat/Lon: 32.687/-116.762

Observations

Time Wind Speed/Gust Temp(F) RH Fuel Moist Fuel Temp(F) Dewpt(F) Tmax(F) Tmin(F) Accum Precip 10-min Precip SL Press(mb)
6/27 5:00pm 235 8 G 14 84° 14% - - 31° 90.7° 77.1° - - -
6/27 4:50pm 253 9 G 16 85° 14% - - 31° 90.7° 77.1° - - -
6/27 4:40pm 251 8 G 13 85° 15% - - 33° 90.7° 77.1° - - -
6/27 4:30pm 240 8 G 13 85° 16% - - 33° 90.7° 77.1° - - -
6/27 4:20pm 234 9 G 14 85° 15% - - 32° 90.7° 77.1° - - -
6/27 4:10pm 240 9 G 16 86° 14% - - 31° 90.7° 77.1° - - -
6/27 4:00pm 250 8 G 16 86° 15% - - 32° 90.7° 77.1° - - -
6/27 3:50pm 225 9 G 15 85° 16% - - 33° 90.7° 77.1° - - -
6/27 3:40pm 227 9 G 15 86° 15% - - 34° 90.7° 77.1° - - -
6/27 3:20pm 247 11 G 16 86° 16% - - 34° 90.7° 77.1° - - -
6/27 3:10pm 273 9 G 18 87° 15% - - 33° 90.7° 77.1° - - -
6/27 3:00pm 253 9 G 15 86° 14% - - 32° 90.7° 77.1° - - -
6/27 2:50pm 233 11 G 18 86° 14% - - 32° 90.7° 77.1° - - -
6/27 2:40pm 238 10 G 16 87° 14% - - 33° 90.7° 77.1° - - -
6/27 2:20pm 257 11 G 18 86° 14% - - 32° 90.7° 77.1° - - -
6/27 2:10pm 253 12 G 17 87° 14% - - 32° 90.7° 77.1° - - -
6/27 2:00pm 262 10 G 18 88° 14% - - 32° 90.7° 77.1° - - -
6/27 1:50pm 257 9 G 13 88° 14% - - 33° 90.7° 77.1° - - -
6/27 1:40pm 263 9 G 16 88° 14% - - 33° 90.7° 77.1° - - -
6/27 1:30pm 252 9 G 14 87° 15% - - 33° 90.7° 77.1° - - -
6/27 1:10pm 218 10 G 16 87° 15% - - 34° 90.7° 77.1° - - -
6/27 1:00pm 220 12 G 17 88° 16% - - 36° 90.7° 77.1° - - -
6/27 12:50pm 230 11 G 17 88° 16% - - 36° 90.7° 77.1° - - -
6/27 12:40pm 256 9 G 16 89° 11% - - 29° 90.7° 77.1° - - -
6/27 12:30pm 250 10 G 18 89° 11% - - 27° 90.7° 77.1° - - -
6/27 12:20pm 253 10 G 15 90° 9% - - 23° 90.7° 77.1° - - -
6/27 12:10pm 273 10 G 17 90° 9% - - 23° 90.7° 77.1° - - -
6/27 12:00pm 278 9 G 15 90° 9% - - 23° 90.7° 77.1° - - -
6/27 11:50am 282 7 G 14 89° 9% - - 22° 90.6° 77.1° - - -
6/27 11:40am 266 9 G 15 89° 9% - - 22° 90.6° 77.1° - - -
6/27 11:30am 269 7 G 17 90° 9% - - 23° 90.6° 77.1° - - -
6/27 11:20am 270 9 G 15 89° 9% - - 22° 90.4° 77.1° - - -
6/27 11:10am 255 8 G 15 89° 9% - - 22° 89.7° 77.1° - - -
6/27 11:00am 266 6 G 11 89° 9% - - 21° 89.2° 77.1° - - -
6/27 10:50am 246 6 G 12 88° 9% - - 21° 89° 77.1° - - -
6/27 10:40am 273 5 G 9 88° 9% - - 23° 88.9° 77.1° - - -
6/27 10:30am 263 5 G 10 88° 10% - - 25° 88.6° 77.1° - - -
6/27 10:20am 273 4 G 11 88° 10% - - 24° 88.6° 77.1° - - -
6/27 10:10am 252 6 G 11 87° 10% - - 23° 88.4° 77.1° - - -
6/27 10:00am 263 6 G 11 88° 9% - - 22° 88.1° 77.1° - - -
6/27 9:50am 224 6 G 9 87° 9% - - 21° 87.2° 77.1° - - -
6/27 9:40am 233 6 G 10 86° 9% - - 21° 87.2° 77.1° - - -
6/27 9:30am 220 5 G 9 87° 9% - - 22° 87.2° 77.1° - - -
6/27 9:20am 208 5 G 9 87° 9% - - 22° 87° 77.1° - - -
6/27 9:10am 208 6 G 10 86° 10% - - 22° 86.7° 77.1° - - -
6/27 9:00am 212 6 G 10 86° 10% - - 23° 86.7° 77.1° - - -
6/27 8:50am 223 5 G 8 86° 10% - - 22° 86.7° 77.1° - - -
6/27 8:40am 241 5 G 9 86° 9% - - 20° 86.7° 77.1° - - -
6/27 8:30am 304 4 G 9 86° 8% - - 18° 86.7° 77.1° - - -
6/27 8:20am 289 4 G 8 86° 8% - - 18° 86.5° 77.1° - - -
6/27 8:10am 320 5 G 10 86° 8% - - 17° 86.4° 77.1° - - -
6/27 8:00am 323 4 G 10 86° 8% - - 17° 86.4° 77.1° - - -
6/27 7:50am 326 5 G 11 85° 8% - - 18° 85.8° 77.1° - - -
6/27 7:40am 308 2 G 6 85° 9% - - 21° 85.6° 77.1° - - -
6/27 7:30am 54 3 G 8 84° 10% - - 22° 84.4° 77.1° - - -
6/27 7:20am 354 4 G 9 83° 10% - - 21° 84.3° 77.1° - - -
6/27 7:10am 337 3 G 9 83° 10% - - 20° 83.7° 77.1° - - -
6/27 7:00am 31 2 G 7 83° 10% - - 21° 83.7° 77.1° - - -
6/27 6:50am 59 2 G 4 82° 10% - - 20° 83.7° 77.1° - - -
6/27 6:40am 339 1 G 4 81° 10% - - 19° 83.7° 77.1° - - -
6/27 6:30am 31 2 G 3 80° 10% - - 19° 83.7° 77.1° - - -
6/27 6:20am 64 2 G 4 80° 10% - - 18° 83.7° 77.1° - - -
6/27 6:10am 350 2 G 4 79° 10% - - 18° 83.7° 77.1° - - -
6/27 6:00am 349 1 G 5 78° 10% - - 17° 83.7° 77.1° - - -
6/27 5:50am 287 1 G 4 78° 10% - - 17° 83.7° 77.2° - - -
6/27 5:40am 251 1 G 3 79° 10% - - 17° 83.7° 77.8° - - -
6/27 5:30am 154 1 G 4 78° 10% - - 17° 83.7° 77.8° - - -
6/27 5:20am 323 1 G 2 79° 10% - - 17° 83.7° 77.8° - - -
6/27 5:10am 118 2 G 5 78° 10% - - 17° 83.7° 77.8° - - -
6/27 5:00am 96 2 G 4 78° 10% - - 17° 83.7° 77.8° - - -
6/27 4:50am 121 1 G 3 79° 9% - - 16° 83.7° 78.4° - - -
6/27 4:40am 295 3 G 6 81° 8% - - 15° 83.7° 80.3° - - -
6/27 4:30am 307 4 G 9 81° 8% - - 15° 83.7° 80.3° - - -
6/27 4:20am 313 4 G 7 81° 8% - - 15° 83.7° 80.3° - - -
6/27 4:10am 318 3 G 7 81° 8% - - 15° 83.7° 80.3° - - -
6/27 4:00am 315 4 G 7 81° 8% - - 15° 83.7° 80.3° - - -
6/27 3:50am 311 4 G 6 81° 9% - - 16° 83.7° 80.3° - - -
6/27 3:40am 309 4 G 6 81° 9% - - 16° 83.7° 80.5° - - -
6/27 3:30am 311 5 G 12 82° 8% - - 16° 83.7° 80.5° - - -
6/27 3:20am 316 5 G 8 81° 8% - - 15° 83.7° 80.5° - - -
6/27 3:10am 317 5 G 9 82° 8% - - 15° 83.7° 80.5° - - -
6/27 3:00am 320 5 G 9 81° 9% - - 16° 83.7° 80.5° - - -
6/27 2:50am 317 5 G 8 81° 9% - - 17° 83.7° 80.5° - - -
6/27 2:40am 314 5 G 8 81° 9% - - 17° 83.7° 80.5° - - -
6/27 2:30am 319 6 G 11 82° 9% - - 18° 83.7° 80.5° - - -
6/27 2:20am 321 6 G 11 81° 10% - - 19° 83.7° 80.5° - - -
6/27 2:10am 319 6 G 9 81° 10% - - 19° 83.7° 80.5° - - -
6/27 2:00am 312 7 G 10 81° 10% - - 19° 83.7° 81° - - -
6/27 1:50am 312 6 G 10 81° 10% - - 19° 83.7° 81° - - -
6/27 1:40am 314 6 G 10 81° 10% - - 19° 83.7° 81° - - -
6/27 1:30am 321 6 G 10 82° 10% - - 19° 83.7° 81.5° - - -
6/27 1:20am 321 6 G 10 82° 10% - - 19° 83.7° 81.5° - - -
6/27 1:10am 325 7 G 11 83° 10% - - 20° 83.7° 81.5° - - -
6/27 1:00am 321 7 G 12 83° 9% - - 19° 83.7° 81.5° - - -
6/27 12:50am 330 5 G 10 83° 8% - - 16° 83.7° 81.5° - - -
6/27 12:40am 335 5 G 11 83° 7% - - 13° 83.7° 81.5° - - -
6/27 12:30am 327 5 G 10 83° 6% - - 10° 83.7° 81.5° - - -
6/27 12:20am 318 5 G 8 82° 7% - - 12° 83.4° 81.5° - - -
6/27 12:10am 310 5 G 8 82° 7% - - 13° 83.4° 81.6° - - -
6/27 12:00am 324 6 G 14 84° 6% - - 10° 97° 81.3° - - -
6/26 11:50pm 329 6 G 11 84° 6% - - 97° 81.3° - - -
6/26 11:40pm 330 7 G 11 84° 6% - - 10° 97° 81.3° - - -
6/26 11:30pm 335 5 G 9 84° 6% - - 10° 97° 81.3° - - -
6/26 11:20pm 327 5 G 12 84° 6% - - 10° 97° 81.3° - - -
6/26 11:10pm 349 5 G 11 84° 6% - - 11° 97° 81.3° - - -
6/26 11:00pm 328 5 G 9 84° 7% - - 12° 97° 81.3° - - -
6/26 10:50pm 357 5 G 10 84° 7% - - 13° 97° 81.3° - - -
6/26 10:40pm 349 5 G 10 85° 7% - - 12° 97° 81.3° - - -
6/26 10:30pm 338 4 G 10 85° 7% - - 13° 97° 81.3° - - -
6/26 10:20pm 335 6 G 12 84° 7% - - 15° 97° 81.3° - - -
6/26 10:10pm 317 4 G 10 84° 8% - - 16° 97° 81.3° - - -
6/26 10:00pm 299 3 G 6 85° 8% - - 17° 97° 81.3° - - -
6/26 9:50pm 329 6 G 14 86° 7% - - 15° 97° 81.3° - - -
6/26 9:40pm 344 9 G 17 86° 7% - - 16° 97° 81.3° - - -
6/26 9:30pm 337 5 G 9 85° 8% - - 18° 97° 81.3° - - -
6/26 9:20pm 329 4 G 12 85° 9% - - 19° 97° 81.3° - - -
6/26 9:10pm 313 4 G 8 85° 9% - - 20° 97° 81.3° - - -
6/26 9:00pm 330 4 G 9 86° 9% - - 20° 97° 81.3° - - -
6/26 8:50pm 344 5 G 9 86° 8% - - 19° 97° 81.3° - - -
6/26 8:40pm 322 4 G 8 86° 8% - - 19° 97° 81.3° - - -
6/26 8:30pm 332 8 G 17 86° 8% - - 18° 97° 81.3° - - -
6/26 8:20pm 354 8 G 14 86° 8% - - 18° 97° 81.3° - - -
6/26 8:10pm 327 5 G 11 86° 8% - - 17° 97° 81.3° - - -
6/26 8:00pm 333 6 G 17 86° 8% - - 17° 97° 81.3° - - -
6/26 7:50pm 317 6 G 20 86° 8% - - 18° 97° 81.3° - - -
6/26 7:40pm 323 6 G 17 87° 8% - - 19° 97° 81.3° - - -
6/26 7:30pm 296 5 G 12 88° 8% - - 20° 97° 81.3° - - -
6/26 7:20pm 315 5 G 18 88° 8% - - 20° 97° 81.3° - - -
6/26 7:10pm 300 4 G 10 89° 9% - - 23° 97° 81.3° - - -
6/26 7:00pm 294 7 G 11 89° 9% - - 23° 97° 81.3° - - -
6/26 6:50pm 288 6 G 14 89° 11% - - 27° 97° 81.3° - - -
6/26 6:40pm 273 8 G 15 89° 11% - - 28° 97° 81.3° - - -
6/26 6:30pm 280 9 G 14 89° 11% - - 27° 97° 81.3° - - -
6/26 6:20pm 276 9 G 16 90° 10% - - 27° 97° 81.3° - - -
6/26 6:10pm 275 9 G 15 90° 10% - - 27° 97° 81.3° - - -
6/26 6:00pm 287 9 G 17 90° 11% - - 28° 97° 81.3° - - -
6/26 5:50pm 289 9 G 17 91° 11% - - 30° 97° 81.3° - - -
6/26 5:40pm 287 9 G 18 91° 11% - - 30° 97° 81.3° - - -
6/26 5:30pm 287 10 G 20 91° 12% - - 31° 97° 81.3° - - -
6/26 5:20pm 289 12 G 17 92° 11% - - 30° 97° 81.3° - - -
6/26 5:10pm 287 11 G 18 92° 11% - - 29° 97° 81.3° - - -
6/26 5:00pm 287 10 G 19 92° 10% - - 29° 97° 81.3° - - -
6/26 4:50pm 294 12 G 19 92° 11% - - 30° 97° 81.3° - - -
6/26 4:40pm 291 12 G 18 93° 11% - - 30° 97° 81.3° - - -
6/26 4:30pm 287 9 G 17 94° 10% - - 29° 97° 81.3° - - -
6/26 4:20pm 284 12 G 21 93° 10% - - 29° 97° 81.3° - - -
6/26 4:10pm 289 10 G 18 94° 11% - - 31° 97° 81.3° - - -
6/26 4:00pm 291 10 G 17 94° 11% - - 32° 97° 81.3° - - -
6/26 3:50pm 293 12 G 18 94° 10% - - 30° 97° 81.3° - - -
6/26 3:40pm 285 10 G 23 95° 10% - - 30° 97° 81.3° - - -
6/26 3:30pm 288 10 G 21 95° 10% - - 30° 97° 81.3° - - -
6/26 3:20pm 288 11 G 22 95° 10% - - 29° 97° 81.3° - - -
6/26 3:10pm 284 10 G 18 95° 8% - - 26° 97° 81.3° - - -
6/26 3:00pm 285 11 G 18 95° 9% - - 26° 97° 81.3° - - -
6/26 2:50pm 290 10 G 17 96° 8% - - 26° 97° 81.3° - - -
6/26 2:40pm 289 10 G 18 96° 7% - - 22° 97° 81.3° - - -
6/26 2:30pm 288 10 G 17 96° 7% - - 22° 97° 81.3° - - -
6/26 2:20pm 293 10 G 17 96° 8% - - 24° 97° 81.3° - - -
6/26 2:10pm 288 8 G 17 96° 8% - - 25° 97° 81.3° - - -
6/26 2:00pm 282 9 G 15 96° 8% - - 24° 97° 81.3° - - -
6/26 1:50pm 287 10 G 17 96° 8% - - 24° 97° 81.3° - - -
6/26 1:40pm 293 10 G 17 96° 8% - - 26° 97° 81.3° - - -
6/26 1:30pm 296 9 G 17 96° 8% - - 26° 97° 81.3° - - -
6/26 1:20pm 282 9 G 17 96° 8% - - 25° 97° 81.3° - - -
6/26 1:10pm 292 8 G 15 96° 9% - - 27° 97° 81.3° - - -
6/26 1:00pm 282 9 G 16 96° 9% - - 27° 97° 81.3° - - -
6/26 12:50pm 295 8 G 18 96° 8% - - 25° 97° 81.3° - - -
6/26 12:40pm 296 8 G 16 96° 9% - - 27° 97° 81.3° - - -
6/26 12:30pm 283 8 G 16 96° 8% - - 26° 97° 81.3° - - -
6/26 12:20pm 283 9 G 17 95° 9% - - 29° 96.3° 81.3° - - -
6/26 12:10pm 269 7 G 12 95° 13% - - 36° 96° 81.3° - - -
6/26 12:00pm 260 9 G 15 95° 12% - - 34° 95.9° 81.3° - - -
6/26 11:50am 252 8 G 13 93° 15% - - 38° 95.9° 81.3° - - -
6/26 11:40am 244 10 G 15 92° 16% - - 39° 95.9° 81.3° - - -
6/26 11:30am 243 10 G 14 92° 16% - - 39° 95.9° 81.3° - - -
6/26 11:20am 249 8 G 13 92° 17% - - 41° 95.9° 81.3° - - -
6/26 11:10am 252 8 G 16 93° 12% - - 34° 95.9° 81.3° - - -
6/26 11:00am 279 5 G 13 95° 11% - - 31° 95.9° 81.3° - - -
6/26 10:50am 256 6 G 10 94° 14% - - 37° 94.8° 81.3° - - -
6/26 10:40am 269 5 G 11 94° 13% - - 35° 94.8° 81.3° - - -
6/26 10:30am 284 4 G 9 93° 12% - - 33° 93.7° 81.3° - - -
6/26 10:20am 269 5 G 9 93° 12% - - 33° 93.6° 81.3° - - -
6/26 10:10am 236 7 G 11 92° 12% - - 32° 93.6° 81.3° - - -
6/26 10:00am 259 5 G 9 92° 11% - - 31° 93.3° 81.3° - - -
6/26 9:50am 237 6 G 10 92° 11% - - 30° 92.8° 81.3° - - -
6/26 9:40am 238 7 G 10 92° 11% - - 30° 92.8° 81.3° - - -
6/26 9:30am 252 6 G 9 92° 11% - - 31° 92.8° 81.3° - - -
6/26 9:20am 268 6 G 9 92° 11% - - 30° 92.1° 81.3° - - -
6/26 9:10am 247 6 G 9 90° 11% - - 29° 92.1° 81.3° - - -
6/26 9:00am 239 6 G 8 90° 11% - - 28° 92.1° 81.3° - - -
6/26 8:50am 190 3 G 6 92° 10% - - 28° 92.1° 81.3° - - -
6/26 8:40am 175 2 G 4 91° 10% - - 28° 91.9° 81.3° - - -
6/26 8:30am 222 4 G 6 89° 10% - - 26° 91.9° 81.3° - - -
6/26 8:20am 201 4 G 7 90° 11% - - 27° 91.9° 81.3° - - -
6/26 8:10am 187 3 G 5 89° 11% - - 27° 91.9° 81.3° - - -
6/26 8:00am 217 3 G 5 88° 11% - - 27° 91.9° 81.3° - - -
6/26 7:50am 199 3 G 5 89° 11% - - 28° 91.9° 81.3° - - -
6/26 7:40am 196 1 G 4 89° 12% - - 31° 91.9° 81.3° - - -
6/26 7:30am 289 2 G 7 89° 11% - - 29° 91.9° 81.3° - - -
6/26 7:20am 272 3 G 9 87° 11% - - 25° 91.9° 81.3° - - -
6/26 7:10am 216 2 G 4 86° 11% - - 25° 91.9° 81.3° - - -
6/26 7:00am 230 2 G 3 86° 11% - - 26° 91.9° 81.3° - - -
6/26 6:50am 251 3 G 7 89° 10% - - 26° 91.9° 81.3° - - -
6/26 6:40am 341 5 G 11 91° 10% - - 27° 91.9° 81.3° - - -
6/26 6:30am 349 5 G 11 90° 11% - - 28° 91.5° 81.3° - - -
6/26 6:20am 321 3 G 9 88° 11% - - 28° 89.4° 81.3° - - -
6/26 6:10am 298 2 G 5 87° 11% - - 26° 89.4° 81.3° - - -
6/26 6:00am 293 3 G 8 86° 11% - - 26° 89.4° 81.3° - - -